Canyon City, OR

1:32 AM PST on January 22, 2017 (GMT -0800)
Grant County Regional

Weather History for KGCD - July, 2013

Change the Weather History Date:

Saturday, July 20, 2013

  Actual Average (KBNO) Record (KBNO)
Temperature  
Mean Temperature 77 °F -  
Max Temperature 95 °F 86 °F 103 °F (1946)
Min Temperature 59 °F 46 °F 36 °F (1996)
Cooling Degree Days 12    
Growing Degree Days 27 (Base 50)    
Moisture  
Dew Point 29 °F    
Average Humidity 20    
Maximum Humidity 42    
Minimum Humidity 5    
Precipitation  
Precipitation 0.00 in - - ()
Sea Level Pressure  
Sea Level Pressure 30.02 in    
Wind  
Wind Speed 7 mph (North)    
Max Wind Speed 13 mph    
Max Gust Speed 20 mph    
Visibility 10 miles    
Events      
Averages and records for this station are not official NWS values.
T = Trace of Precipitation, MM = Missing Value Source: NWS Daily Summary

Daily Weather History Graph

Daily Weather History Graph

Search for Another Location

Airport or City:

Trip Planner

Search our weather history database for the weather conditions in past years. The results will help you decide how hot, cold, wet, or windy it might be!

Date:

Astronomy

Jul. 20, 2013 Rise Set
Actual Time 5:30 AM PDT 8:33 PM PDT
Civil Twilight 4:55 AM PDT 9:07 PM PDT
Nautical Twilight 4:11 AM PDT 9:52 PM PDT
Astronomical Twilight 3:17 AM PDT 10:45 PM PDT
Moon 6:40 PM PDT (7/20) 3:15 AM PDT (7/20)
Length of Visible Light 16h 12m
Length of Day
15h 02m
Waxing Gibbous, 94% of the Moon is Illuminated
Jul 20
Waxing Gibbous
Jul 22
Full
Jul 29
Last Quarter
Aug 6
New
Aug 14
First Quarter

Hourly Weather History & Observations

Time (PDT) Temp. Dew Point Humidity Pressure Visibility Wind Dir Wind Speed Gust Speed Precip Events Conditions
12:15 AM 72.0 °F 34.7 °F 26% 30.08 in 10.0 mi NE 3.5 mph - N/A   Clear
12:35 AM 70.5 °F 36.5 °F 29% 30.07 in 10.0 mi ENE 6.9 mph - N/A   Clear
12:55 AM 68.9 °F 37.6 °F 32% 30.07 in 10.0 mi ENE 6.9 mph - N/A   Clear
1:15 AM 68.9 °F 37.8 °F 32% 30.07 in 10.0 mi ENE 4.6 mph - N/A   Clear
1:35 AM 67.5 °F 37.8 °F 34% 30.07 in 10.0 mi East 9.2 mph - N/A   Clear
1:55 AM 66.0 °F 37.4 °F 35% 30.07 in 10.0 mi East 10.4 mph - N/A   Clear
2:15 AM 64.9 °F 37.0 °F 36% 30.07 in 10.0 mi East 9.2 mph - N/A   Clear
2:35 AM 66.2 °F 37.2 °F 34% 30.07 in 10.0 mi East 8.1 mph - N/A   Clear
2:55 AM 65.8 °F 37.0 °F 35% 30.07 in 10.0 mi East 8.1 mph - N/A   Clear
3:15 AM 64.0 °F 37.0 °F 37% 30.06 in 10.0 mi East 9.2 mph - N/A   Clear
3:35 AM 63.0 °F 36.9 °F 38% 30.06 in 10.0 mi East 6.9 mph - N/A   Clear
3:55 AM 63.0 °F 36.5 °F 37% 30.06 in 10.0 mi East 10.4 mph - N/A   Clear
4:15 AM 60.8 °F 36.5 °F 40% 30.06 in 10.0 mi ESE 9.2 mph - N/A   Clear
4:35 AM 61.0 °F 36.1 °F 40% 30.06 in 10.0 mi ESE 9.2 mph - N/A   Clear
4:55 AM 60.6 °F 36.0 °F 40% 30.06 in 10.0 mi ESE 10.4 mph - N/A   Clear
5:15 AM 60.6 °F 36.0 °F 40% 30.06 in 10.0 mi ESE 8.1 mph - N/A   Clear
5:35 AM 60.8 °F 35.6 °F 39% 30.06 in 10.0 mi ESE 6.9 mph - N/A   Clear
5:55 AM 59.2 °F 36.1 °F 42% 30.07 in 10.0 mi East 5.8 mph - N/A   Clear
6:15 AM 60.1 °F 36.1 °F 41% 30.07 in 10.0 mi ESE 6.9 mph - N/A   Clear
6:35 AM 62.2 °F 36.1 °F 38% 30.07 in 10.0 mi East 3.5 mph - N/A   Clear
6:55 AM 63.1 °F 36.5 °F 37% 30.07 in 10.0 mi East 6.9 mph - N/A   Clear
7:15 AM 63.7 °F 36.1 °F 36% 30.08 in 10.0 mi ESE 5.8 mph - N/A   Clear
7:35 AM 64.4 °F 36.1 °F 35% 30.08 in 10.0 mi East 5.8 mph - N/A   Clear
7:55 AM 65.8 °F 37.0 °F 35% 30.08 in 10.0 mi East 4.6 mph - N/A   Clear
8:15 AM 67.8 °F 37.6 °F 33% 30.08 in 10.0 mi East 4.6 mph - N/A   Clear
8:35 AM 70.5 °F 37.4 °F 30% 30.08 in 10.0 mi East 3.5 mph - N/A   Clear
8:55 AM 72.9 °F 37.4 °F 28% 30.08 in 10.0 mi Calm Calm - N/A   Clear
9:15 AM 75.2 °F 36.9 °F 25% 30.08 in 10.0 mi WNW 4.6 mph - N/A   Clear
9:35 AM 76.3 °F 36.7 °F 24% 30.07 in 10.0 mi West 3.5 mph - N/A   Clear
9:55 AM 78.3 °F 35.4 °F 21% 30.07 in 10.0 mi Calm Calm - N/A   Clear
10:15 AM 79.7 °F 34.2 °F 19% 30.06 in 10.0 mi West 5.8 mph - N/A   Clear
10:35 AM 81.1 °F 33.6 °F 18% 30.05 in 10.0 mi NW 6.9 mph - N/A   Clear
10:55 AM 83.1 °F 32.5 °F 16% 30.05 in 10.0 mi WNW 8.1 mph - N/A   Clear
11:15 AM 84.4 °F 30.6 °F 14% 30.05 in 10.0 mi WNW 4.6 mph - N/A   Clear
11:35 AM 86.0 °F 30.2 °F 13% 30.04 in 10.0 mi West 4.6 mph - N/A   Clear
11:55 AM 87.4 °F 29.8 °F 13% 30.04 in 10.0 mi West 8.1 mph - N/A   Clear
12:15 PM 88.3 °F 27.7 °F 11% 30.03 in 10.0 mi WNW 4.6 mph - N/A   Clear
12:35 PM 89.1 °F 27.5 °F 11% 30.03 in 10.0 mi West 4.6 mph - N/A   Clear
12:55 PM 89.2 °F 28.9 °F 11% 30.02 in 10.0 mi WSW 4.6 mph - N/A   Clear
1:15 PM 89.6 °F 27.5 °F 11% 30.01 in 10.0 mi West 5.8 mph - N/A   Clear
1:35 PM 90.1 °F 28.8 °F 11% 30.01 in 10.0 mi West 5.8 mph - N/A   Clear
1:55 PM 91.0 °F 26.8 °F 10% 30.00 in 10.0 mi WSW 5.8 mph - N/A   Clear
2:15 PM 93.7 °F 25.2 °F 9% 30.00 in 10.0 mi West 10.4 mph 16.1 mph N/A   Clear
2:35 PM 93.0 °F 22.3 °F 8% 29.99 in 10.0 mi WNW 6.9 mph 17.3 mph N/A   Clear
2:55 PM 93.4 °F 22.3 °F 8% 29.99 in 10.0 mi West 8.1 mph 16.1 mph N/A   Clear
3:15 PM 93.4 °F 22.5 °F 8% 29.98 in 10.0 mi NW 8.1 mph - N/A   Clear
3:35 PM 94.1 °F 23.4 °F 8% 29.98 in 10.0 mi WNW 10.4 mph - N/A   Clear
3:55 PM 94.5 °F 21.4 °F 7% 29.97 in 10.0 mi WNW 10.4 mph 18.4 mph N/A   Clear
4:15 PM 93.7 °F 17.4 °F 6% 29.96 in 10.0 mi North 8.1 mph - N/A   Clear
4:35 PM 94.6 °F 16.9 °F 6% 29.96 in 10.0 mi North 8.1 mph 17.3 mph N/A   Clear
4:55 PM 95.0 °F 14.4 °F 5% 29.95 in 10.0 mi NNW 8.1 mph 17.3 mph N/A   Clear
5:15 PM 95.4 °F 14.2 °F 5% 29.95 in 10.0 mi NNW 9.2 mph 19.6 mph N/A   Clear
5:35 PM 93.9 °F 16.7 °F 6% 29.95 in 10.0 mi NW 12.7 mph 18.4 mph N/A   Clear
5:55 PM 94.1 °F 16.2 °F 6% 29.94 in 10.0 mi NW 11.5 mph - N/A   Clear
6:15 PM 93.6 °F 21.6 °F 7% 29.94 in 10.0 mi North 8.1 mph - N/A   Clear
6:35 PM 92.7 °F 19.9 °F 7% 29.94 in 10.0 mi NW 12.7 mph - N/A   Clear
6:55 PM 92.1 °F 20.1 °F 7% 29.94 in 10.0 mi NW 12.7 mph - N/A   Clear
7:15 PM 91.0 °F 18.3 °F 7% 29.94 in 10.0 mi NNW 10.4 mph - N/A   Clear
7:35 PM 89.8 °F 18.1 °F 7% 29.94 in 10.0 mi NNW 12.7 mph 19.6 mph N/A   Clear
7:55 PM 88.3 °F 19.4 °F 8% 29.94 in 10.0 mi NW 12.7 mph 17.3 mph N/A   Clear
8:15 PM 86.4 °F 18.7 °F 8% 29.95 in 10.0 mi NNW 5.8 mph 10.4 mph N/A   Clear
8:35 PM 83.1 °F 20.5 °F 10% 29.95 in 10.0 mi North 3.5 mph - N/A   Clear
8:55 PM 80.8 °F 23.2 °F 12% 29.96 in 10.0 mi NNW 3.5 mph - N/A   Clear
9:15 PM 79.2 °F 23.7 °F 13% 29.97 in 10.0 mi Calm Calm - N/A   Clear
9:35 PM 77.2 °F 24.1 °F 14% 29.98 in 10.0 mi Calm Calm - N/A   Clear
9:55 PM 78.8 °F 23.7 °F 13% 29.98 in 10.0 mi ESE 4.6 mph - N/A   Clear
10:15 PM 79.3 °F 22.8 °F 12% 29.99 in 10.0 mi Calm Calm - N/A   Clear
10:35 PM 76.8 °F 21.6 °F 13% 29.99 in 10.0 mi Calm Calm - N/A   Clear
10:55 PM 76.3 °F 21.6 °F 13% 29.99 in 10.0 mi WNW 3.5 mph - N/A   Clear
11:15 PM 75.9 °F 19.2 °F 12% 29.98 in 10.0 mi NW 5.8 mph - N/A   Clear
11:35 PM 72.3 °F 18.7 °F 13% 29.98 in 10.0 mi NW 5.8 mph - N/A   Clear
11:55 PM 73.2 °F 19.2 °F 13% 29.98 in 5.0 mi NNW 5.8 mph - N/A   Haze